DW9852 Weather Reports


Display with metric or nautical units.
time (UTC)temp
F
wind
direction
speed
MPH
gust
MPH
rain 1hr
in
rain 24hr
in
rain mn
in
humidity
%
barometer
mb
20260509122538 0 0.0 0.0 0.00 0.00 0.00 1013.6
20260509122039 0 0.0 0.0 0.00 0.00 0.00 1013.7
20260509121545 0 0.0 0.0 0.00 0.00 0.00 1013.6
20260509121040 0 0.0 0.0 0.00 0.00 0.00 1013.7
20260509120539 0 0.0 0.0 0.00 0.00 0.00 1013.6
20260509120057 0 0.0 0.0 0.00 0.00 0.00 1013.4
20260509115539 0 0.0 0.0 0.00 0.00 0.00 1013.4
20260509115038 0 0.0 0.0 0.00 0.00 0.00 1013.2
20260509114547 0 0.0 0.0 0.00 0.00 0.00 1013.1
20260509114040 0 0.0 0.0 0.00 0.00 0.00 1013.0
20260509113539 0 0.0 0.0 0.00 0.00 0.00 1012.7
20260509113054 0 0.0 0.0 0.00 0.00 0.00 1012.7
20260509112539 0 0.0 0.0 0.00 0.00 0.00 1012.5
20260509112039 0 0.0 0.0 0.00 0.00 0.00 1012.5
20260509111551 0 0.0 0.0 0.00 0.00 0.00 1012.6
20260509111039 0 0.0 0.0 0.00 0.00 0.00 1012.6
20260509110540 0 0.0 0.0 0.00 0.00 0.00 1012.6
20260509110047 0 0.0 0.0 0.00 0.00 0.00 1012.4
20260509105539 0 0.0 0.0 0.00 0.00 0.00 1012.4
20260509105039 0 0.0 0.0 0.00 0.00 0.00 1012.5
20260509104548 0 0.0 0.0 0.00 0.00 0.00 1012.5
20260509104039 0 0.0 0.0 0.00 0.00 0.00 1012.5
20260509103539 0 0.0 0.0 0.00 0.00 0.00 1012.7
20260509103053 0 0.0 0.0 0.00 0.00 0.00 1012.7
20260509102539 0 0.0 0.0 0.00 0.00 0.00 1012.8
20260509102040 0 0.0 0.0 0.00 0.00 0.00 1012.8
20260509101554 0 0.0 0.0 0.00 0.00 0.00 1012.7
20260509101039 0 0.0 0.0 0.00 0.00 0.00 1012.5
20260509100540 0 0.0 0.0 0.00 0.00 0.00 1012.4
20260509100052 0 0.0 0.0 0.00 0.00 0.00 1012.3
20260509095540 0 0.0 0.0 0.00 0.00 0.00 1012.2
20260509095039 0 0.0 0.0 0.00 0.00 0.00 1012.0
20260509094550 0 0.0 0.0 0.00 0.00 0.00 1011.9
20260509094040 0 0.0 0.0 0.00 0.00 0.00 1011.8
20260509093538 0 0.0 0.0 0.00 0.00 0.00 1011.8
20260509093054 0 0.0 0.0 0.00 0.00 0.00 1011.7
20260509092542 0 0.0 0.0 0.00 0.00 0.00 96 1011.6
20260509092043 0 0 0.0 0.0 0.00 0.00 0.00 96 1011.6
20260509091622 72 0 0.0 0.0 0.00 0.00 0.00 96 1011.4
20260509091039 72 0 0.0 0.0 0.00 0.00 0.00 96 1011.5
20260509090540 72 0 0.0 0.0 0.00 0.00 0.00 96 1011.5
20260509090057 72 0 0.0 0.0 0.00 0.00 0.00 96 1011.6
20260509085539 72 0 0.0 0.0 0.00 0.00 0.00 96 1011.8
20260509085042 72 0 0.0 0.0 0.00 0.00 0.00 96 1011.7
20260509084550 72 0 0.0 0.0 0.00 0.00 0.00 96 1011.5
20260509084039 72 0 0.0 0.0 0.00 0.00 0.00 96 1011.5
20260509083538 72 0 0.0 0.0 0.00 0.00 0.00 96 1011.5
20260509083055 72 0 0.0 0.0 0.00 0.00 0.00 96 1011.7
20260509082539 72 0 0.0 0.0 0.00 0.00 0.00 96 1011.8
20260509082040 72 0 0.0 1.0 0.00 0.00 0.00 96 1011.7
20260509081557 72 0 0.0 5.0 0.00 0.00 0.00 96 1011.8
20260509081039 72 0 0.0 5.0 0.00 0.00 0.00 96 1011.8
20260509080538 72 71 0.0 7.0 0.00 0.00 0.00 96 1011.7
20260509080105 72 203 0.0 7.0 0.00 0.00 0.00 95 1011.8
20260509075542 72 205 2.0 7.0 0.00 0.00 0.00 95 1011.9
20260509075042 72 49 2.0 6.0 0.00 0.00 0.00 95 1011.9
20260509074600 72 217 1.0 5.0 0.00 0.00 0.00 95 1011.9
20260509074040 72 134 1.0 5.0 0.00 0.00 0.00 95 1012.0
20260509073539 72 202 0.0 4.0 0.00 0.00 0.00 95 1012.1
20260509073116 72 0 0.0 4.0 0.00 0.00 0.00 95 1011.9
20260509072542 72 0 0.0 6.0 0.00 0.00 0.00 95 1011.9
20260509072040 72 328 0.0 8.0 0.00 0.00 0.00 95 1012.0
20260509071548 73 172 2.0 8.0 0.00 0.00 0.00 94 1011.8
20260509071039 73 79 1.0 7.0 0.00 0.00 0.00 94 1011.8
20260509070544 73 0 1.0 4.0 0.00 0.00 0.00 94 1012.0
20260509070054 73 0 0.0 5.0 0.00 0.00 0.00 94 1012.4
20260509065539 73 188 1.0 5.0 0.00 0.00 0.00 94 1012.4
20260509065040 73 99 0.0 3.0 0.00 0.00 0.00 94 1012.3
20260509064548 73 131 0.0 3.0 0.00 0.00 0.00 94 1012.2
20260509064044 73 28 0.0 4.0 0.00 0.00 0.00 94 1012.1
20260509063540 73 51 1.0 4.0 0.00 0.00 0.00 94 1012.3
20260509063047 73 49 0.0 4.0 0.00 0.00 0.00 94 1012.5
20260509062540 73 0 0.0 4.0 0.00 0.00 0.00 94 1012.6
20260509062040 73 0 1.0 4.0 0.00 0.00 0.00 94 1012.5
20260509061557 73 188 0.0 4.0 0.00 0.00 0.00 94 1012.4
20260509061040 73 0 2.0 4.0 0.00 0.00 0.00 94 1012.5
20260509060540 73 0 0.0 3.0 0.00 0.00 0.00 93 1012.6
20260509060052 73 0 0.0 4.0 0.00 0.00 0.00 93 1012.7
20260509055538 73 0 0.0 5.0 0.00 0.00 0.00 93 1012.5
20260509055043 73 0 1.0 5.0 0.00 0.00 0.00 93 1012.5
20260509054602 73 41 1.0 5.0 0.00 0.00 0.00 93 1012.4
20260509054039 73 49 0.0 3.0 0.00 0.00 0.00 93 1012.5
20260509053540 73 0 0.0 3.0 0.00 0.00 0.00 93 1012.7
20260509053051 73 61 1.0 4.0 0.00 0.00 0.00 93 1013.1
20260509052541 73 186 0.0 4.0 0.00 0.00 0.00 93 1013.1
20260509052039 73 39 1.0 4.0 0.00 0.00 0.00 93 1013.0
20260509051549 73 184 1.0 6.0 0.00 0.00 0.00 93 1013.0
20260509051043 73 0 0.0 6.0 0.00 0.00 0.00 93 1013.1
20260509050539 73 82 2.0 6.0 0.00 0.00 0.00 93 1013.0
20260509050058 73 189 0.0 6.0 0.00 0.00 0.00 93 1013.2
20260509045539 73 209 2.0 8.0 0.00 0.00 0.00 93 1013.1
20260509045039 73 24 2.0 8.0 0.00 0.00 0.00 92 1012.9
20260509044547 73 103 2.0 7.0 0.00 0.00 0.00 92 1012.9
20260509044038 73 44 2.0 5.0 0.00 0.00 0.00 92 1012.8
20260509043539 73 165 0.0 4.0 0.00 0.00 0.00 92 1013.0
20260509043043 73 0 0.0 4.0 0.00 0.00 0.00 92 1013.1
20260509042538 73 27 0.0 2.0 0.00 0.00 0.00 92 1013.0
20260509042040 72 207 0.0 2.0 0.00 0.00 0.00 92 1012.9
20260509041548 72 0 0.0 2.0 0.00 0.00 0.00 92 1012.7
20260509041041 72 0 0.0 2.0 0.00 0.00 0.00 92 1012.7
20260509040539 72 0 0.0 2.0 0.00 0.00 0.00 92 1012.5
20260509040119 72 0 0.0 2.0 0.00 0.00 0.00 92 1012.4
20260509035539 72 0 0.0 5.0 0.00 0.00 0.00 91 1012.4
20260509035040 72 174 0.0 5.0 0.00 0.00 0.00 91 1012.0
20260509034550 72 42 1.0 2.0 0.00 0.00 0.00 91 1011.9
20260509034039 73 0 0.0 3.0 0.00 0.00 0.00 91 1011.9
20260509033539 73 34 0.0 3.0 0.00 0.00 0.00 91 1011.8
20260509033043 73 0 0.0 2.0 0.00 0.00 0.00 91 1011.7
20260509032540 73 0 0.0 2.0 0.00 0.00 0.00 90 1011.7
20260509032045 73 0 0.0 3.0 0.00 0.00 0.00 90 1011.8
20260509031550 73 0 1.0 4.0 0.00 0.00 0.00 90 1011.8
20260509031038 73 0 0.0 4.0 0.00 0.00 0.00 90 1011.7
20260509030540 73 0 0.0 4.0 0.00 0.00 0.00 89 1011.8
20260509030050 73 0 0.0 4.0 0.00 0.00 0.00 89 1011.9
20260509025544 73 0 0.0 5.0 0.00 0.00 0.00 89 1011.8
20260509025044 74 44 1.0 5.0 0.00 0.00 0.00 89 1011.8
20260509024548 74 101 0.0 4.0 0.00 0.00 0.00 89 1011.8
20260509024039 74 0 0.0 4.0 0.00 0.00 0.00 89 1011.7
20260509023540 74 44 0.0 3.0 0.00 0.00 0.00 88 1011.6
20260509023048 74 0 0.0 3.0 0.00 0.00 0.00 88 1011.7
20260509022539 74 37 0.0 2.0 0.00 0.00 0.00 89 1011.8
20260509022039 74 0 0.0 2.0 0.00 0.00 0.00 88 1011.7
20260509021548 74 0 0.0 3.0 0.00 0.00 0.00 88 1011.6
20260509021040 74 0 0.0 3.0 0.00 0.00 0.00 89 1011.4
20260509020538 74 0 0.0 3.0 0.00 0.00 0.00 88 1011.4
20260509020042 74 0 0.0 4.0 0.00 0.00 0.00 88 1011.2
20260509015543 74 0 0.0 4.0 0.00 0.00 0.00 88 1011.1
20260509015040 74 48 0.0 4.0 0.00 0.00 0.00 87 1010.9
20260509014547 74 41 0.0 4.0 0.00 0.00 0.00 87 1010.8
20260509014041 74 0 0.0 3.0 0.00 0.00 0.00 87 1010.7
20260509013629 75 0 0.0 3.0 0.00 0.00 0.00 86 1010.8
20260509013051 75 0 0.0 2.0 0.00 0.00 0.00 86 1010.9
20260509012539 75 0 0.0 3.0 0.00 0.00 0.00 86 1010.8
20260509012039 75 34 0.0 6.0 0.00 0.00 0.00 85 1010.8
20260509011555 75 25 0.0 6.0 0.00 0.00 0.00 85 1010.9
20260509011039 76 0 0.0 3.0 0.00 0.00 0.00 84 1010.8
20260509010539 76 0 0.0 2.0 0.00 0.00 0.00 84 1010.7
20260509010048 76 0 0.0 2.0 0.00 0.00 0.00 84 1010.6
20260509005541 76 0 0.0 2.0 0.00 0.00 0.00 83 1010.6
20260509005040 76 0 0.0 2.0 0.00 0.00 0.00 83 1010.6
20260509004604 76 0 0.0 3.0 0.00 0.00 0.00 83 1010.5
20260509004039 76 0 0.0 3.0 0.00 0.00 0.00 82 1010.6
20260509003540 77 0 0.0 5.0 0.00 0.00 0.00 82 1010.6
20260509003048 77 31 0.0 5.0 0.00 0.00 0.00 82 1010.4
20260509002539 77 38 0.0 5.0 0.00 0.00 0.00 82 1010.6
20260509002039 77 0 0.0 2.0 0.00 0.00 0.00 81 1010.6
20260509001547 77 0 0.0 3.0 0.00 0.00 0.00 81 1010.6
20260509001040 77 0 0.0 4.0 0.00 0.00 0.00 81 1010.7
20260509000539 77 72 0.0 4.0 0.00 0.00 0.00 81 1010.8
20260509000047 77 0 0.0 3.0 0.00 0.00 0.00 80 1010.8
20260508235542 77 0 0.0 3.0 0.00 0.00 0.00 80 1010.7
20260508235041 78 0 1.0 3.0 0.00 0.00 0.00 79 1010.8
20260508234548 78 0 0.0 2.0 0.00 0.00 0.00 80 1010.8
20260508234039 77 0 0.0 4.0 0.00 0.00 0.00 80 1010.6
20260508233540 77 46 0.0 4.0 0.00 0.00 0.00 80 1010.6
20260508233050 77 0 0.0 0.0 0.00 0.00 0.00 80 1010.6
20260508232541 77 0 0.0 2.0 0.00 0.00 0.00 80 1010.7
20260508232039 77 0 0.0 7.0 0.00 0.00 0.00 79 1010.7
20260508231550 78 25 2.0 7.0 0.00 0.00 0.00 79 1010.7
20260508231040 78 41 3.0 5.0 0.00 0.00 0.00 78 1010.8
20260508230538 78 172 0.0 5.0 0.00 0.00 0.00 78 1010.7
20260508230049 78 10 2.0 5.0 0.00 0.00 0.00 78 1010.7
20260508225540 78 223 0.0 3.0 0.00 0.00 0.00 77 1010.7
20260508225039 77 0 0.0 3.0 0.00 0.00 0.00 79 1010.8
20260508224551 77 11 0.0 3.0 0.00 0.00 0.00 80 1010.8
20260508224039 77 0 0.0 3.0 0.00 0.00 0.00 79 1010.8
20260508223539 77 0 0.0 2.0 0.00 0.00 0.00 79 1010.8
20260508223050 77 0 0.0 3.0 0.00 0.00 0.00 79 1011.0
20260508222538 77 25 0.0 5.0 0.00 0.00 0.00 79 1011.1
20260508222043 77 25 1.0 5.0 0.00 0.00 0.00 80 1011.1
20260508221549 76 39 1.0 5.0 0.00 0.00 0.00 79 1011.2
20260508221045 77 43 0.0 3.0 0.00 0.00 0.00 79 1011.1
20260508220543 76 0 0.0 5.0 0.00 0.00 0.00 79 1011.2
20260508220056 76 203 0.0 5.0 0.00 0.00 0.00 79 1011.2
20260508215540 76 190 1.0 5.0 0.00 0.00 0.00 80 1011.2
20260508215039 76 0 0.0 4.0 0.00 0.00 0.00 81 1011.3
20260508214600 76 0 1.0 5.0 0.00 0.00 0.00 80 1011.3
20260508214042 76 0 2.0 6.0 0.00 0.00 0.00 80 1011.4
20260508213541 76 52 1.0 6.0 0.00 0.00 0.00 81 1011.4
20260508213050 76 18 0.0 6.0 0.00 0.00 0.00 80 1011.4
20260508212539 75 0 1.0 6.0 0.00 0.00 0.00 81 1011.3
20260508212041 75 200 1.0 6.0 0.00 0.00 0.00 80 1011.5
20260508211549 75 0 0.0 3.0 0.00 0.00 0.00 81 1011.6
20260508211043 75 0 1.0 4.0 0.00 0.00 0.00 81 1011.7
20260508210540 75 45 1.0 5.0 0.00 0.00 0.00 81 1011.7
20260508210054 75 0 1.0 5.0 0.00 0.00 0.00 80 1012.0
20260508205539 75 28 2.0 5.0 0.00 0.00 0.00 81 1012.1
20260508205039 75 195 0.0 6.0 0.00 0.00 0.00 80 1012.1
20260508204549 75 26 0.0 6.0 0.00 0.00 0.00 80 1012.2
20260508204042 75 0 1.0 5.0 0.00 0.00 0.00 81 1012.2
20260508203541 75 26 1.0 5.0 0.00 0.00 0.00 80 1012.4
20260508203100 74 79 1.0 8.0 0.00 0.00 0.00 80 1012.3
20260508202540 75 56 3.0 8.0 0.00 0.00 0.00 80 1012.4
20260508202039 75 0 1.0 6.0 0.00 0.00 0.00 80 1012.4
20260508201547 75 0 0.0 6.0 0.00 0.00 0.00 80 1012.3
20260508201042 75 38 1.0 6.0 0.00 0.00 0.00 80 1012.1
20260508200543 75 0 1.0 6.0 0.00 0.00 0.00 81 1012.4
20260508200050 74 355 2.0 6.0 0.00 0.00 0.00 80 1012.3
20260508195541 74 54 1.0 6.0 0.00 0.00 0.00 80 1012.3
20260508195039 75 39 2.0 6.0 0.00 0.00 0.00 81 1012.4
20260508194554 75 0 2.0 6.0 0.00 0.00 0.00 80 1012.3
20260508194039 75 359 2.0 6.0 0.00 0.00 0.00 80 1012.3
20260508193541 74 12 2.0 6.0 0.00 0.00 0.00 80 1012.4
20260508193103 74 113 3.0 6.0 0.00 0.00 0.00 80 1012.5
20260508192540 75 171 2.0 6.0 0.00 0.00 0.00 80 1012.5
20260508192040 75 5 2.0 6.0 0.00 0.00 0.00 81 1012.6
20260508191548 74 46 2.0 6.0 0.00 0.00 0.00 79 1012.6
20260508191039 75 31 2.0 7.0 0.00 0.00 0.00 80 1012.8
20260508190539 74 1 2.0 8.0 0.00 0.00 0.00 79 1012.7
20260508190045 74 76 0.0 8.0 0.00 0.00 0.00 81 1012.8
20260508185537 74 13 2.0 6.0 0.00 0.00 0.00 80 1012.9
20260508185039 74 181 2.0 6.0 0.00 0.00 0.00 80 1012.9
20260508184600 74 87 3.0 5.0 0.00 0.00 0.00 79 1013.0
20260508184039 74 65 1.0 4.0 0.00 0.00 0.00 81 1012.9
20260508183539 73 20 1.0 6.0 0.00 0.00 0.00 81 1013.1
20260508183040 73 32 1.0 6.0 0.00 0.00 0.00 81 1013.0
20260508182540 73 41 1.0 5.0 0.00 0.00 0.00 83 1013.3
20260508182039 72 51 2.0 6.0 0.00 0.00 0.00 82 1013.3
20260508181558 72 58 3.0 6.0 0.00 0.00 0.00 82 1013.4
20260508181039 71 28 1.0 5.0 0.00 0.00 0.00 84 1013.5
20260508180537 71 55 2.0 5.0 0.00 0.00 0.00 83 1013.6
20260508180049 70 0 1.0 3.0 0.00 0.00 0.00 83 1013.6
20260508175539 71 28 0.0 1.0 0.00 0.00 0.00 84 1013.8
20260508175039 70 0 0.0 1.0 0.00 0.00 0.00 83 1013.9
20260508174542 70 0 0.0 1.0 0.00 0.00 0.00 83 1014.0
20260508174039 70 179 0.0 1.0 0.00 0.00 0.00 83 1014.2
20260508173539 69 0 0.0 1.0 0.00 0.00 0.00 84 1014.2
20260508173045 69 0 0.0 1.0 0.00 0.00 0.00 85 1014.2
20260508172538 69 47 0.0 1.0 0.00 0.00 0.00 84 1014.3
20260508172040 69 0 0.0 2.0 0.00 0.00 0.00 85 1014.3
20260508171548 69 0 0.0 2.0 0.00 0.00 0.00 85 1014.4
20260508171039 68 0 0.0 2.0 0.00 0.00 0.00 84 1014.4
20260508170537 68 0 0.0 1.0 0.00 0.00 0.00 85 1014.4
20260508170050 68 204 0.0 1.0 0.00 0.00 0.00 85 1014.5
20260508165539 68 0 0.0 1.0 0.00 0.00 0.00 86 1014.7
20260508165039 68 0 0.0 1.0 0.00 0.00 0.00 84 1014.6
20260508164551 69 0 0.0 0.0 0.00 0.00 0.00 86 1014.6
20260508164039 68 0 0.0 0.0 0.00 0.00 0.00 85 1014.7
20260508163539 68 0 0.0 0.0 0.00 0.00 0.00 85 1014.9
20260508163050 68 0 0.0 0.0 0.00 0.00 0.00 86 1014.6
20260508162539 68 20 0.0 0.0 0.00 0.00 0.00 86 1014.6
20260508162039 68 0 0.0 1.0 0.00 0.00 0.00 85 1014.9
20260508161558 67 0 0.0 1.0 0.00 0.00 0.00 85 1014.7
20260508161043 67 0 0.0 1.0 0.00 0.00 0.00 86 1014.7
20260508160543 67 0 0.0 1.0 0.00 0.00 0.00 85 1014.8
20260508160121 67 0 0.0 1.0 0.00 0.00 0.00 86 1014.9
20260508155541 67 0 0.0 1.0 0.00 0.00 0.00 87 1014.9
20260508155037 66 0 0.0 0.0 0.00 0.00 0.00 86 1015.0
20260508154557 66 0 0.0 0.0 0.00 0.00 0.00 87 1015.2
20260508154039 66 0 0.0 0.0 0.00 0.00 0.00 87 1015.3
20260508153538 66 0 0.0 0.0 0.00 0.00 0.00 87 1015.3
20260508153051 66 0 0.0 0.0 0.00 0.00 0.00 87 1015.3
20260508152539 66 0 0.0 0.0 0.00 0.00 0.00 87 1015.5
20260508152041 66 0 0.0 0.0 0.00 0.00 0.00 87 1015.7
20260508151555 66 0 0.0 0.0 0.00 0.00 0.00 87 1015.6
20260508151039 66 0 0.0 0.0 0.00 0.00 0.00 87 1015.6
20260508150537 65 0 0.0 0.0 0.00 0.00 0.00 87 1015.7
20260508150050 66 0 0.0 0.0 0.00 0.00 0.00 87 1015.7
20260508145541 65 0 0.0 0.0 0.00 0.00 0.00 87 1015.8
20260508145038 65 0 0.0 0.0 0.00 0.00 0.00 87 1015.8
20260508144548 65 0 0.0 1.0 0.00 0.00 0.00 86 1015.8
20260508144039 65 0 0.0 1.0 0.00 0.00 0.00 87 1015.6
20260508143541 65 0 0.0 1.0 0.00 0.00 0.00 87 1015.6
20260508143059 64 0 0.0 0.0 0.00 0.00 0.00 87 1015.6
20260508142539 64 0 0.0 0.0 0.00 0.00 0.00 87 1015.8
20260508142039 64 0 0.0 0.0 0.00 0.00 0.00 87 1016.0
20260508141555 64 0 0.0 0.0 0.00 0.00 0.00 87 1015.8
20260508141039 64 0 0.0 0.0 0.00 0.00 0.00 87 1015.7
20260508140539 64 0 0.0 0.0 0.00 0.00 0.00 87 1015.8
20260508140046 64 0 0.0 0.0 0.00 0.00 0.00 87 1015.8
20260508135542 64 0 0.0 0.0 0.00 0.00 0.00 87 1015.8
20260508135040 64 0 0.0 0.0 0.00 0.00 0.00 87 1015.7
20260508134549 64 0 0.0 0.0 0.00 0.00 0.00 87 1015.6
20260508134039 64 0 0.0 0.0 0.00 0.00 0.00 87 1015.6
20260508133539 63 0 0.0 0.0 0.00 0.00 0.00 87 1015.6
20260508133056 0 0.0 0.0 0.00 0.00 0.00 1015.3
20260508132539 0 0.0 0.0 0.00 0.00 0.00 1015.3
20260508132039 0 0.0 0.0 0.00 0.00 0.00 1015.3
20260508131545 0 0.0 0.0 0.00 0.00 0.00 1015.3
20260508131039 0 0.0 0.0 0.00 0.00 0.00 1015.6
20260508130539 0 0.0 0.0 0.00 0.00 0.00 1015.6
20260508130056 0 0.0 0.0 0.00 0.00 0.00 1015.6
20260508125539 0 0.0 0.0 0.00 0.00 0.00 1015.6
20260508125039 0 0.0 0.0 0.00 0.00 0.00 1015.5
20260508124550 0 0.0 0.0 0.00 0.00 0.00 1015.5
20260508124039 0 0.0 0.0 0.00 0.00 0.00 1015.6
20260508123539 0 0.0 0.0 0.00 0.00 0.00 1015.5
20260508123050 0 0.0 0.0 0.00 0.00 0.00 1015.6